User: anonymous   Login
Location: Baix
(44.7118°N, 4.7648°E)
Time: 18:21:19
(UTC+00:00)
Language:

Meteor 1-28 Rocket - Orbit

View from above orbital plane
View from above orbital plane
View from above satellite
View from above satellite

Ground track
Ground track

The orbit data is extracted from the following two-line orbital elements,

1 10114U 77057B   20298.50308995  .00000490  00000-0  27606-4 0  9991
2 10114  97.3258  83.1813 0013819   5.1568 354.9805 15.17554616369344
Epoch (UTC): 24 October 2020 12:04:26
Eccentricity: 0.0013819
inclination: 97.3258°
perigee height: 504 km
apogee height: 523 km
right ascension of ascending node: 83.1813°
argument of perigee: 5.1568°
revolutions per day: 15.17554616
mean anomaly at epoch: 354.9805°
orbit number at epoch: 36934

The dashed part of the orbit path shows where the satellite is in the earth's shadow,  

DLR